Location: Bo?a Wola
(50.4192°N, 19.7966°E)
Time: 20:14:17
(UTC+00:00)

Cosmos 1455 Rocket - Pass Details

Date: 20 September 2024
Orbit: 601 x 623 km, 82.5° (Epoch: 13 October)

Event Time Altitude Azimuth Distance (km) Brightness Sun altitude
Exits shadow 23:31:05 13° 34° (NNE) 1,759 6.0 -37.5°
Drops below altitude 10° 23:31:42 10° 29° (NNE) 1,971 6.3 -37.5°
Sets 23:34:08 0° 19° (NNE) 2,884 7.5 -37.4°
